Back to catalog

OPS 4682

SNAPSHOT

AliveSciencePO
NORAD 1314·PAYLOAD·🇺🇸 United States

Launched Apr 3, 1965 from Vandenberg Space Force Base

Loading…

Next Passes (next 24 hours)

TLE

FreshSource: Space-Track

Epoch: Sep 14, 2026, 14:44 UTC

1 01314U 65027A   26257.61429998  .00000045  00000-0  13992-3 0  9995
2 01314  90.2488   8.2059 0031762  59.7253 311.4442 12.91806390642578

Track OPS 4682 in real time with AllMySat

Download on the App Store